[[{"header":{"parameterUnit":"m.s-1","parameterCategory":1,"la1":30.2991,"la2":30.254,"lo1":-89.0895,"lo2":-89.0444,"dy":0.0017,"dx":0.0017,"nx":28,"ny":28,"refTime":"2023-04-26T21:00:00:Z","depth":0,"parameterNumber":2,"parameterNumberName":"U-component_of_WINDS"},"data":[0,0,0,0,0,0,0,0,0,0,0,0,0,0,0,0,0,0,0,0,0,0,0,0,0,0,0,0,0,0,0,0,0,0,0,0,0,0,0,0,0,0,0,0,0,0,0,0,0,0,0,0,0,0,0,0,0,0,-4.027,-4.0269,0,-4.0194,-4.0194,-4.0193,-4.0064,-4.0061,-4.0059,-4.0056,-3.998,-3.998,-3.9981,0,0,0,0,0,0,0,0,0,0,0,0,0,-4.0307,-4.0307,-4.027,-4.0269,-4.0268,-4.0195,-4.0193,-4.0192,-4.0064,-4.0061,-4.0058,-4.0055,-3.998,-3.998,-3.9981,0,0,0,0,0,0,0,0,0,0,0,0,0,-4.0267,-4.0307,-4.027,-4.0195,-4.0188,-4.0195,-4.0193,-4.0192,-4.0065,-4.0061,-4.0057,-4.0054,-3.998,-3.998,-3.9981,-4.0055,0,0,-3.9982,-3.9982,0,0,0,0,0,0,0,0,-4.0269,-4.0266,-4.0207,-4.0201,-4.0192,-4.0135,-4.0178,-4.0146,-4.0065,-4.0111,-4.0056,-4.0052,-4.0035,-4.003,-4.0024,-4.0052,-4.0048,-3.9982,-3.9982,-3.9982,-3.9982,0,0,0,0,0,0,0,-4.0272,-4.0268,-4.024,-4.0207,-4.0197,-4.0166,-4.0157,-4.0172,-4.0094,-4.0107,-4.0098,-4.009,-4.003,-4.0024,-4.0021,-4.0047,-3.9982,-3.9982,-3.9982,-3.9982,-4.0134,-4.0137,0,0,0,0,0,0,-4.0286,-4.0271,-4.0243,-4.0238,-4.0223,-4.0169,-4.0158,-4.0157,-4.0094,-4.0081,-4.0094,-4.0085,-4.0025,-4.0021,-4.0018,-4.0101,-3.9982,-3.9982,-3.9983,-4.013,-4.0134,-4.0139,0,0,0,0,0,0,-4.0287,-4.0284,-4.0246,-4.0252,-4.0245,-4.0172,-4.0172,-4.0157,-4.0151,-4.0083,-4.0069,-4.0102,-4.0022,-4.0018,-4.0047,-4.0097,-3.9983,-3.9983,-4.0125,-4.0131,-4.0136,-4.0268,0,0,0,0,0,0,-4.0289,-4.0286,-4.0312,-4.0254,-4.0245,-4.0275,-4.0175,-4.0158,-4.0152,-4.014,-4.0087,-4.0075,-4.0019,-4.0047,-4.0048,-4.0095,-3.9983,-4.012,-4.0128,-4.0135,-4.0259,-4.0278,-4.0294,0,0,0,0,0,-4.029,-4.0353,-4.0314,-4.0312,-4.0277,-4.0278,-4.0273,-4.0207,-4.0156,-4.0183,-4.014,-4.0077,-4.0092,-4.0051,-4.005,-4.0099,-4.0117,-4.0126,-4.0134,-4.0251,-4.0274,-4.0293,0,0,0,0,0,0,-4.0419,-4.0343,-4.03,-4.0345,-4.0319,-4.0257,-4.0288,-4.0233,-4.0222,-4.0211,-4.013,-4.0119,-4.0159,-4.0132,-4.0088,-4.0169,-4.0095,-4.0104,-4.0184,-4.0205,-4.0222,-4.0227,-3.9983,0,0,0,0,0,-4.0453,-4.046,-4.0394,-4.044,-4.0429,-4.0362,-4.036,-4.0311,-4.0281,-4.027,-4.0228,-4.0203,-4.0201,-4.0202,-4.0197,-4.0256,-4.0242,-4.0289,-4.0306,-4.0321,-4.0329,-4.0358,-4.0378,-4.0167,-4.0167,-4.0166,0,0,-4.0522,-4.0482,-4.0491,-4.0465,-4.0439,-4.0449,-4.0353,-4.0367,-4.0374,-4.0272,-4.0296,-4.0267,-4.0232,-4.0277,-4.0294,-4.0255,-4.0385,-4.0332,-4.0344,-4.0344,-4.0369,-4.0389,-4.0407,-4.0173,-4.0171,-4.0171,0,0,-4.0653,-4.0623,-4.0658,-4.0635,-4.0597,-4.0552,-4.0561,-4.0507,-4.0483,-4.0507,-4.0431,-4.0439,-4.0438,-4.0417,-4.0407,-4.0533,-4.0474,-4.0534,-4.0624,-4.0654,-4.067,-4.0684,-4.0729,-4.0746,-4.0543,-4.0543,-4.0543,0,-4.0743,-4.0754,-4.0683,-4.0703,-4.0694,-4.0603,-4.0638,-4.0619,-4.0583,-4.0579,-4.0536,-4.0535,-4.0505,-4.0544,-4.0575,-4.057,-4.0578,-4.0538,-4.0673,-4.0687,-4.0699,-4.0741,-4.0758,-4.055,-4.055,-4.0549,-4.0548,0,-4.0868,-4.0877,-4.091,-4.0877,-4.0872,-4.09,-4.0834,-4.0838,-4.0791,-4.0751,-4.0778,-4.074,-4.0726,-4.0732,-4.0686,-4.0765,-4.0742,-4.0688,-4.0612,-4.0728,-4.0766,-4.0782,-4.0561,-4.0558,-4.0556,-4.0554,0,0,-4.1074,-4.1003,-4.1016,-4.1001,-4.0954,-4.096,-4.0985,-4.0971,-4.0976,-4.0955,-4.0974,-4.0977,-4.0927,-4.0915,-4.0867,-4.0893,-4.0996,-4.0835,-4.0833,-4.0866,-4.108,-4.112,-4.114,-4.0958,-4.0961,-4.0963,-4.1083,0,-4.1194,-4.1231,-4.1169,-4.122,-4.1228,-4.1143,-4.1165,-4.1139,-4.1104,-4.1106,-4.1067,-4.107,-4.1004,-4.0997,-4.1019,-4.0979,-4.1038,-4.0969,-4.0974,-4.0975,-4.0984,-4.116,-4.1201,-4.1316,-4.1097,-4.11,-4.1102,0,-4.1338,-4.1324,-4.1376,-4.1328,-4.1329,-4.1349,-4.1332,-4.1336,-4.1306,-4.1278,-4.1267,-4.121,-4.1232,-4.116,-4.1189,-4.1144,-4.1144,-4.1124,-4.1127,-4.1124,-4.1044,-4.116,-4.1351,-4.1369,-4.1124,-4.1123,-4.1121,0,-4.1483,-4.1478,-4.1508,-4.1497,-4.1441,-4.1458,-4.1436,-4.1402,-4.1399,-4.1385,-4.1382,-4.1372,-4.1366,-4.1359,-4.1302,-4.1255,-4.1339,-4.1262,-4.1316,-4.1318,-4.1336,-4.1335,-4.1529,-4.1338,-4.1338,-4.1338,-4.1337,0,-4.1622,-4.1658,-4.1572,-4.1591,-4.1628,-4.1558,-4.1598,-4.1567,-4.1539,-4.155,-4.1478,-4.1491,-4.1414,-4.142,-4.1375,-4.1407,-4.1405,-4.1383,-4.1371,-4.1389,-4.1392,-4.1386,-4.1376,-4.1342,-4.1341,-4.134,-4.1339,0,-4.1789,-4.1734,-4.1761,-4.1707,-4.1694,-4.1724,-4.1678,-4.1694,-4.1654,-4.1671,-4.1671,-4.1609,-4.1612,-4.1555,-4.1546,-4.1516,-4.1567,-4.1541,-4.1577,-4.1568,-4.1625,-4.162,-4.1821,-4.1843,-4.164,-4.1642,-4.1644,0,-4.1881,-4.1906,-4.1855,-4.1857,-4.1839,-4.1844,-4.184,-4.1774,-4.1773,-4.1742,-4.1762,-4.1759,-4.1752,-4.1761,-4.1716,-4.171,-4.1682,-4.1753,-4.168,-4.1698,-4.1682,-4.1681,-4.1683,-4.1767,-4.177,-4.1772,-4.1774,0,-4.205,-4.2021,-4.2018,-4.2006,-4.2004,-4.1992,-4.1974,-4.1981,-4.1908,-4.1912,-4.1913,-4.1909,-4.1901,-4.1899,-4.1884,-4.1862,-4.1806,-4.1798,-4.1809,-4.1827,-4.1847,-4.1836,-4.1617,-4.1792,-4.1791,-4.1789,-4.1788,-4.1787,-4.218,-4.2199,-4.2166,-4.2166,-4.2146,-4.2133,-4.2145,-4.2108,-4.2108,-4.2095,-4.2057,-4.2066,-4.2037,-4.2012,-4.1995,-4.2002,-4.1967,-4.1985,-4.1989,-4.1994,-4.2004,-4.1848,-4.1999,-4.1998,-4.1998,-4.1997,-4.1997,0,-4.2344,-4.232,-4.232,-4.2299,-4.2299,-4.2248,-4.2227,-4.223,-4.2239,-4.2217,-4.2212,-4.2216,-4.2214,-4.217,-4.2164,-4.2177,-4.2152,-4.2178,-4.2175,-4.2171,-4.2036,-4.2026,-4.2199,-4.2199,-4.2199,-4.2199,-4.2198,-4.2198,-4.243,-4.2458,-4.2427,-4.2446,-4.2421,-4.2429,-4.2421,-4.2409,-4.2391,-4.2398,-4.2396,-4.2367,-4.2337,-4.2328,-4.2325,-4.2312,-4.2313,-4.2347,-4.2326,-4.22,-4.2181,-4.2162,-4.2152,-4.2348,-4.2348,-4.246,-4.2461,-4.2462]},{"header":{"parameterUnit":"m.s-1","parameterCategory":1,"la1":30.2991,"la2":30.254,"lo1":-89.0895,"lo2":-89.0444,"dy":0.0017,"dx":0.0017,"nx":28,"ny":28,"refTime":"2023-04-26T21:00:00:Z","depth":0,"parameterNumber":3,"parameterNumberName":"V-component_of_WINDS"},"data":[0,0,0,0,0,0,0,0,0,0,0,0,0,0,0,0,0,0,0,0,0,0,0,0,0,0,0,0,0,0,0,0,0,0,0,0,0,0,0,0,0,0,0,0,0,0,0,0,0,0,0,0,0,0,0,0,0,0,3.0448,3.0448,0,3.039,3.0389,3.0388,3.0447,3.0449,3.0451,3.0454,3.0386,3.0382,3.0378,0,0,0,0,0,0,0,0,0,0,0,0,0,3.0606,3.0603,3.0448,3.0448,3.0447,3.039,3.0389,3.0388,3.0446,3.0449,3.0452,3.0455,3.0387,3.0383,3.0378,0,0,0,0,0,0,0,0,0,0,0,0,0,3.0541,3.0602,3.0449,3.0469,3.0471,3.039,3.0389,3.0388,3.0446,3.0449,3.0453,3.0456,3.0389,3.0383,3.0377,3.0271,0,0,3.0359,3.0357,0,0,0,0,0,0,0,0,3.0545,3.0535,3.0467,3.0468,3.0469,3.0429,3.042,3.0349,3.0445,3.0455,3.0454,3.0458,3.0397,3.0391,3.0372,3.0268,3.0265,3.0359,3.0355,3.0353,3.0351,0,0,0,0,0,0,0,3.0549,3.0538,3.0425,3.0466,3.0467,3.048,3.0475,3.0407,3.0407,3.0454,3.0458,3.0451,3.0398,3.0377,3.0371,3.0264,3.0359,3.0354,3.035,3.0348,3.0072,3.0069,0,0,0,0,0,0,3.0552,3.0541,3.0427,3.0423,3.0516,3.0474,3.0468,3.0438,3.0408,3.0407,3.0448,3.0454,3.0386,3.0378,3.0369,3.0244,3.0353,3.0347,3.0344,3.0076,3.0072,3.0068,0,0,0,0,0,0,3.0555,3.0541,3.0429,3.0484,3.047,3.0468,3.0434,3.0435,3.0415,3.0404,3.0403,3.0427,3.0388,3.0377,3.0296,3.0242,3.0344,3.0339,3.0081,3.0075,3.007,2.9992,0,0,0,0,0,0,3.056,3.0542,3.0503,3.0482,3.0467,3.0359,3.0431,3.0432,3.0405,3.0412,3.0384,3.0382,3.039,3.0305,3.029,3.0236,3.0334,3.0085,3.0078,3.0071,2.9999,2.9984,2.9972,0,0,0,0,0,3.0565,3.0481,3.05,3.0486,3.0418,3.0356,3.0347,3.036,3.0401,3.036,3.0354,3.0383,3.0251,3.0296,3.028,3.0223,3.0089,3.008,3.0072,3.0005,2.9987,2.9972,0,0,0,0,0,0,3.0492,3.0479,3.05,3.0407,3.0383,3.0366,3.0315,3.034,3.0301,3.0309,3.0325,3.0318,3.0232,3.022,3.027,3.012,3.0176,3.0164,3.0131,3.0114,3.01,3.0104,3.0329,0,0,0,0,0,3.0466,3.0418,3.0408,3.0327,3.0314,3.0317,3.029,3.0303,3.0277,3.0266,3.0253,3.0224,3.0177,3.0145,3.01,2.9998,2.9993,2.9951,2.9938,2.9926,2.9915,2.9862,2.9844,3.004,3.004,3.004,0,0,3.041,3.0397,3.0365,3.0313,3.0295,3.0244,3.0307,3.025,3.0212,3.0256,3.018,3.017,3.0139,3.0048,3.0007,3.0035,2.986,2.9916,2.9907,2.9902,2.9851,2.9833,2.9816,3.0034,3.0035,3.0036,0,0,3.0282,3.0267,3.02,3.0181,3.0155,3.0158,3.0142,3.0122,3.0117,3.0042,3.0075,3.0029,2.9946,2.9923,2.9901,2.9768,2.9794,2.9753,2.968,2.9628,2.9612,2.9599,2.9551,2.9534,2.9742,2.9742,2.9742,0,3.0215,3.0141,3.0161,3.0102,3.0078,3.0119,3.005,3.0031,2.999,2.9972,3.0004,2.9903,2.9885,2.979,2.9758,2.9739,2.972,2.9755,2.9613,2.96,2.9587,2.9542,2.9525,2.9737,2.9738,2.9738,2.9739,0,3.0061,3.0009,2.9957,2.992,2.9891,2.9827,2.9835,2.9803,2.9819,2.9818,2.9741,2.9721,2.9674,2.9653,2.9666,2.956,2.9578,2.9611,2.9668,2.9564,2.9522,2.9505,2.973,2.9732,2.9733,2.9735,0,0,2.9883,2.986,2.9841,2.9826,2.9801,2.976,2.9699,2.9656,2.9628,2.9598,2.9547,2.9477,2.9509,2.9484,2.9496,2.945,2.9347,2.9489,2.9489,2.9463,2.9229,2.9204,2.9184,2.9364,2.9361,2.9359,2.9232,0,2.9755,2.965,2.9667,2.9565,2.9518,2.9558,2.9504,2.9483,2.9481,2.9439,2.9436,2.9387,2.9433,2.9418,2.9374,2.9368,2.93,2.9378,2.9315,2.9312,2.9321,2.9162,2.9134,2.9015,2.9215,2.9212,2.921,0,2.9591,2.956,2.9454,2.9439,2.942,2.9372,2.9335,2.9295,2.9271,2.9273,2.9247,2.9267,2.9205,2.9264,2.9177,2.923,2.9206,2.9199,2.9195,2.9189,2.9255,2.9151,2.8977,2.8959,2.9185,2.9187,2.9189,0,2.9473,2.9404,2.9332,2.9318,2.9298,2.9264,2.9253,2.9234,2.9207,2.9174,2.9158,2.9117,2.9094,2.9061,2.907,2.9112,2.8982,2.9042,2.8981,2.898,2.895,2.8952,2.877,2.8935,2.8935,2.8936,2.8936,0,2.9328,2.9261,2.9279,2.9235,2.9162,2.9182,2.9109,2.9103,2.9086,2.904,2.9071,2.9028,2.9043,2.8999,2.9006,2.8934,2.8923,2.8922,2.8924,2.8919,2.8919,2.8902,2.8911,2.8931,2.8932,2.8933,2.8934,0,2.9182,2.9192,2.9117,2.9106,2.9102,2.9048,2.9038,2.8996,2.8998,2.894,2.8928,2.893,2.8881,2.8887,2.8831,2.8836,2.8746,2.8759,2.8755,2.8758,2.8697,2.8703,2.8498,2.8472,2.8653,2.8652,2.865,0,2.9089,2.904,2.9025,2.8998,2.8987,2.8943,2.8917,2.8935,2.8907,2.8878,2.8839,2.8794,2.8759,2.8679,2.8674,2.8632,2.8643,2.8574,2.8637,2.8634,2.8642,2.8645,2.864,2.8561,2.8559,2.8558,2.8556,0,2.8923,2.8931,2.8895,2.886,2.8829,2.8802,2.8778,2.8754,2.8769,2.8736,2.8688,2.8661,2.8606,2.8561,2.8522,2.851,2.8535,2.8537,2.8521,2.8515,2.8515,2.8515,2.8721,2.8541,2.8543,2.8544,2.8545,2.8545,2.8801,2.876,2.8744,2.8702,2.8687,2.8664,2.8625,2.8624,2.8585,2.8544,2.8556,2.8502,2.848,2.8431,2.8415,2.8372,2.8397,2.8373,2.8367,2.8361,2.8355,2.8523,2.8365,2.8366,2.8366,2.8366,2.8367,0,2.8637,2.863,2.8592,2.8559,2.8526,2.8556,2.8531,2.8501,2.8454,2.8434,2.8399,2.8345,2.8301,2.8294,2.8253,2.822,2.8231,2.8208,2.8211,2.8208,2.8334,2.8353,2.8201,2.8201,2.8201,2.8201,2.8201,2.8201,2.8548,2.8481,2.8487,2.8412,2.8404,2.8353,2.8337,2.8316,2.83,2.8238,2.8204,2.8201,2.8185,2.8144,2.8105,2.8104,2.8087,2.806,2.8064,2.8182,2.8198,2.8214,2.8232,2.8057,2.8056,2.7941,2.794,2.7939]}]]